Weather History for Racine, WI

Change the Weather History Date:

Monday, November 5, 2012

  Actual Average Record
Temperature  
Mean Temperature 36 °F -  
Max Temperature 41 °F 49 °F 69 °F (1975)
Min Temperature 30 °F 35 °F 5 °F (1951)
Degree Days  
Heating Degree Days 30    
Moisture  
Dew Point 30 °F    
Average Humidity 76    
Maximum Humidity 88    
Minimum Humidity 60    
Precipitation  
Precipitation 0.00 in - - ()
Sea Level Pressure  
Sea Level Pressure 30.21 in    
Wind  
Wind Speed 6 mph (North)    
Max Wind Speed 12 mph    
Max Gust Speed -    
Visibility 10 miles    
Events Rain    
Averages and records for this station are not official NWS values.
T = Trace of Precipitation, MM = Missing Value Source: NWS Daily Summary

Daily Weather History Graph

Daily Weather History Graph

Search for Another Location

Airport:

Trip Planner

Search our weather history database for the weather conditions in past years. The results will help you decide how hot, cold, wet, or windy it might be!

Date:

Astronomy

Nov. 05, 2012 Rise Set
Actual Time 6:30 AM CST 4:38 PM CST
Civil Twilight 6:01 AM CST 5:07 PM CST
Nautical Twilight 5:27 AM CST 5:41 PM CST
Astronomical Twilight 4:54 AM CST 6:14 PM CST
Moon 10:15 PM CST (11/5) 11:50 AM CST (11/5)
Length of Visible Light 11h 06m
Length of Day
10h 07m
Waning Gibbous, 62% of the Moon is Illuminated
Nov 5
Waning Gibbous
Nov 6
Last Quarter
Nov 13
New
Nov 20
First Quarter
Nov 28
Full

Hourly Weather History & Observations

Time (CST) Temp. Windchill Dew Point Humidity Pressure Visibility Wind Dir Wind Speed Gust Speed Precip Events Conditions
12:53 AM 30.0 °F 23.2 °F 27.0 °F 88% 30.24 in 10.0 mi WNW 6.9 mph - N/A   Scattered Clouds
1:53 AM 30.0 °F 25.2 °F 26.1 °F 85% 30.24 in 10.0 mi NW 4.6 mph - N/A   Scattered Clouds
2:53 AM 30.9 °F 25.2 °F 27.0 °F 85% 30.23 in 10.0 mi NW 5.8 mph - N/A   Mostly Cloudy
3:53 AM 32.0 °F 27.5 °F 28.0 °F 85% 30.23 in 10.0 mi NW 4.6 mph - N/A   Overcast
4:53 AM 33.1 °F 26.9 °F 28.0 °F 82% 30.24 in 10.0 mi WNW 6.9 mph - N/A   Overcast
5:53 AM 34.0 °F 28.8 °F 28.0 °F 79% 30.23 in 10.0 mi NNW 5.8 mph - N/A   Overcast
6:53 AM 34.0 °F 28.8 °F 28.0 °F 79% 30.23 in 9.0 mi NNW 5.8 mph - N/A   Overcast
7:17 AM 35.6 °F 29.9 °F 28.4 °F 75% 30.21 in 9.0 mi NNW 6.9 mph - N/A   Overcast
7:40 AM 35.6 °F 30.7 °F 28.4 °F 75% 30.22 in 9.0 mi NNW 5.8 mph - N/A   Overcast
7:53 AM 37.0 °F 32.4 °F 28.9 °F 73% 30.23 in 9.0 mi North 5.8 mph - N/A   Overcast
8:53 AM 39.9 °F 35.1 °F 34.0 °F 79% 30.24 in 10.0 mi North 6.9 mph - N/A   Mostly Cloudy
9:13 AM 39.2 °F 33.0 °F 35.6 °F 87% 30.21 in 8.0 mi North 9.2 mph - 0.00 in Rain Light Rain
9:53 AM 39.0 °F - 35.1 °F 86% 30.25 in 7.0 mi Calm Calm - 0.00 in Rain Light Rain
10:28 AM 39.2 °F 37.0 °F 35.6 °F 87% 30.22 in 8.0 mi NW 3.5 mph - 0.00 in   Overcast
10:38 AM 39.2 °F 35.9 °F 35.6 °F 87% 30.22 in 7.0 mi WNW 4.6 mph - 0.00 in   Overcast
10:53 AM 41.0 °F 39.0 °F 36.0 °F 82% 30.23 in 10.0 mi WNW 3.5 mph - 0.00 in   Overcast
11:09 AM 41.0 °F 34.7 °F 35.6 °F 81% 30.21 in 8.0 mi East 10.4 mph - 0.00 in Rain Light Rain
11:53 AM 39.9 °F 33.4 °F 34.0 °F 79% 30.23 in 10.0 mi East 10.4 mph - 0.00 in   Overcast
12:53 PM 39.9 °F 32.9 °F 33.1 °F 77% 30.22 in 10.0 mi East 11.5 mph - N/A   Overcast
1:21 PM 41.0 °F 35.2 °F 32.0 °F 70% 30.19 in 10.0 mi ESE 9.2 mph - N/A   Overcast
1:53 PM 41.0 °F 35.2 °F 32.0 °F 70% 30.21 in 10.0 mi East 9.2 mph - N/A   Overcast
2:53 PM 39.9 °F 35.8 °F 30.9 °F 70% 30.20 in 10.0 mi ENE 5.8 mph - N/A   Overcast
3:53 PM 39.9 °F 35.8 °F 30.0 °F 68% 30.20 in 10.0 mi ENE 5.8 mph - N/A   Overcast
4:53 PM 39.0 °F 34.8 °F 30.0 °F 70% 30.20 in 10.0 mi ENE 5.8 mph - N/A   Overcast
5:53 PM 39.0 °F 35.7 °F 28.0 °F 65% 30.21 in 10.0 mi East 4.6 mph - N/A   Overcast
6:53 PM 39.0 °F - 27.0 °F 62% 30.20 in 10.0 mi Calm Calm - N/A   Overcast
7:53 PM 39.9 °F - 28.0 °F 63% 30.19 in 10.0 mi Calm Calm - N/A   Overcast
8:53 PM 39.9 °F - 27.0 °F 60% 30.18 in 10.0 mi Calm Calm - N/A   Overcast
9:53 PM 37.9 °F 35.5 °F 28.9 °F 70% 30.17 in 10.0 mi NNW 3.5 mph - N/A   Overcast
10:53 PM 37.9 °F - 28.0 °F 68% 30.16 in 10.0 mi Calm Calm - N/A   Overcast
11:53 PM 37.9 °F - 28.9 °F 70% 30.15 in 10.0 mi Calm Calm - N/A   Overcast